TimeEDT,TemperatureF,Dew PointF,Humidity,Sea Level PressureIn,VisibilityMPH,Wind Direction,Wind SpeedMPH,Gust SpeedMPH,PrecipitationIn,Events,Conditions,WindDirDegrees,DateUTC
12:15 AM,73.4,66.2,78,29.87,10.0,SW,3.5,-,N/A,,Clear,230,2013-05-22 04:15:00
12:35 AM,73.4,66.2,78,29.87,10.0,Calm,Calm,-,N/A,,Clear,0,2013-05-22 04:35:00
12:55 AM,73.4,66.2,78,29.87,10.0,Calm,Calm,-,N/A,,Clear,0,2013-05-22 04:55:00
1:15 AM,71.6,66.2,83,29.87,10.0,Calm,Calm,-,N/A,,Clear,0,2013-05-22 05:15:00
1:35 AM,71.6,66.2,83,29.87,10.0,South,3.5,-,N/A,,Clear,170,2013-05-22 05:35:00
1:55 AM,71.6,66.2,83,29.87,7.0,Calm,Calm,-,N/A,,Clear,0,2013-05-22 05:55:00
2:15 AM,71.6,66.2,83,29.86,7.0,Calm,Calm,-,N/A,,Clear,0,2013-05-22 06:15:00
2:35 AM,71.6,66.2,83,29.85,7.0,Calm,Calm,-,N/A,,Clear,0,2013-05-22 06:35:00
2:55 AM,69.8,66.2,88,29.86,7.0,Calm,Calm,-,N/A,,Clear,0,2013-05-22 06:55:00
3:15 AM,69.8,66.2,88,29.86,7.0,Calm,Calm,-,N/A,,Clear,0,2013-05-22 07:15:00
3:35 AM,69.8,66.2,88,29.86,5.0,Calm,Calm,-,N/A,,Clear,0,2013-05-22 07:35:00
3:55 AM,68.0,64.4,88,29.86,5.0,Calm,Calm,-,N/A,,Clear,0,2013-05-22 07:55:00
4:15 AM,69.8,66.2,88,29.85,5.0,Calm,Calm,-,N/A,,Clear,0,2013-05-22 08:15:00
4:35 AM,69.8,66.2,88,29.86,5.0,Calm,Calm,-,N/A,,Clear,0,2013-05-22 08:35:00
4:55 AM,68.0,64.4,88,29.86,2.5,Calm,Calm,-,N/A,,Clear,0,2013-05-22 08:55:00
5:15 AM,68.0,64.4,88,29.87,2.5,Calm,Calm,-,N/A,,Clear,0,2013-05-22 09:15:00
5:35 AM,68.0,64.4,88,29.87,2.5,Calm,Calm,-,N/A,,Scattered Clouds,0,2013-05-22 09:35:00
5:55 AM,68.0,64.4,88,29.88,2.5,Calm,Calm,-,N/A,,Mostly Cloudy,0,2013-05-22 09:55:00
6:15 AM,68.0,64.4,88,29.89,2.5,Calm,Calm,-,N/A,,Overcast,0,2013-05-22 10:15:00
6:35 AM,69.8,66.2,88,29.90,3.0,East,4.6,-,N/A,,Overcast,90,2013-05-22 10:35:00
6:45 AM,66.2,66.2,100,29.90,2.5,Calm,Calm,-,N/A,,Overcast,0,2013-05-22 10:45:00
7:45 AM,62.6,60.8,94,29.93,2.5,East,8.1,-,N/A,,Overcast,80,2013-05-22 11:45:00
8:45 AM,62.6,59.0,88,29.94,2.5,East,4.6,-,N/A,,Overcast,90,2013-05-22 12:45:00
9:45 AM,62.6,60.8,94,29.94,1.8,South,5.8,-,N/A,,Overcast,170,2013-05-22 13:45:00
10:45 AM,64.4,60.8,88,29.94,2.0,Calm,Calm,-,N/A,,Overcast,0,2013-05-22 14:45:00
11:45 AM,68.0,62.6,83,29.93,2.2,WSW,3.5,-,N/A,,Haze,250,2013-05-22 15:45:00
12:45 PM,73.4,64.4,73,29.91,2.5,Calm,Calm,-,N/A,,Haze,0,2013-05-22 16:45:00
1:50 PM,75.2,68.0,78,29.89,3.0,SSW,10.4,-,N/A,,Haze,210,2013-05-22 17:50:00
2:45 PM,77.0,68.0,74,29.89,3.0,WSW,9.2,-,N/A,,Haze,240,2013-05-22 18:45:00
3:45 PM,80.6,69.8,70,29.86,3.0,SSW,9.2,-,N/A,,Haze,200,2013-05-22 19:45:00
4:45 PM,82.4,71.6,70,29.84,5.0,WSW,8.1,-,N/A,,Haze,240,2013-05-22 20:45:00
5:45 PM,84.2,69.8,62,29.83,6.0,South,5.8,-,N/A,,Haze,180,2013-05-22 21:45:00
6:45 PM,80.6,69.8,70,29.83,6.0,SSE,12.7,-,N/A,,Haze,150,2013-05-22 22:45:00
7:45 PM,78.8,69.8,74,29.84,7.0,South,5.8,-,N/A,,Partly Cloudy,180,2013-05-22 23:45:00
8:45 PM,71.6,68.0,88,29.85,10.0,Calm,Calm,-,N/A,,Clear,0,2013-05-23 00:45:00
9:45 PM,68.0,68.0,100,29.86,10.0,Calm,Calm,-,N/A,,Clear,0,2013-05-23 01:45:00
10:55 PM,71.6,68.0,88,29.88,7.0,Calm,Calm,-,N/A,,Clear,0,2013-05-23 02:55:00
11:15 PM,75.2,69.8,83,29.88,10.0,SSW,4.6,-,N/A,,Scattered Clouds,210,2013-05-23 03:15:00
11:35 PM,75.2,69.8,83,29.87,7.0,SSW,3.5,-,N/A,,Scattered Clouds,200,2013-05-23 03:35:00
11:55 PM,75.2,69.8,83,29.88,7.0,Calm,Calm,-,N/A,,Clear,0,2013-05-23 03:55:00